Notices

What's New in latest Release from April 7th, 2021:

- Updated Glossary, including Speed of Maximum Gust, and Total Hourly Precipitation

- Updated national and regional climate services offices contacts and prices information

- Addition of station inventory lists for 1981-2010, 1971-2000, and 1961-1990 Normals.

If you haven't already, please take our survey and provide feedback about our website: https://eccc.sondage-survey.ca/f/LanguageSelection.aspx?s=442ca660-fcf1-47c0-95a9-59707d6fd709

Hourly Data Report for December 02, 2018

CARBERRY CS
MANITOBA
Current Station Operator: ECCC - MSC

49°54'20.900" N
99°21'26.800" W
383.50 m
5010547
71170
WZE

Download Data

Hourly Data (December 2018)
Hourly Data Report for December 2, 2018
TIME
LST
Temp Definition
°C
Dew Point Definition
°C
Rel Hum Definition
%
Precip. Amount Definition
mm

Wind Dir Definition
10's deg

Wind Spd Definition
km/h
Visibility Definition
km
Stn Press Definition
kPa
Hmdx Definition


Wind Chill Definition


Weather Definition


00:00 -9.3 -10.4 92 0.0 3 10   97.33   -14 LegendNANA
01:00 -9.7 -10.8 91 0.0 4 12   97.33   -16 LegendNANA
02:00 -9.8 -10.9 91 0.0 3 14   97.33   -16 LegendNANA
03:00 -9.9 -11.2 91 0.0 3 13   97.35   -16 LegendNANA
04:00 -9.7 -10.9 91 0.0 3 15   97.34   -16 LegendNANA
05:00 -9.4 -10.6 91 0.0 3 12   97.35   -15 LegendNANA
06:00 -9.3 -10.5 91 0.0 3 13   97.35   -15 LegendNANA
07:00 -8.8 -9.9 92 0.0 3 10   97.39   -14 LegendNANA
08:00 -8.2 -9.3 92 0.0 1 8   97.44   -12 LegendNANA
09:00 -7.8 -8.9 92 0.0 1 9   97.47   -12 LegendNANA
10:00 -7.6 -8.6 92 0.0 1 9   97.50   -12 LegendNANA
11:00 -7.4 -8.5 92 0.0 2 10   97.56   -12 LegendNANA
12:00
13:00 -7.1 -8.1 93 0.0 2 9   97.55   -11 LegendNANA
14:00 -6.8 -7.8 93 0.0 3 8   97.56   -11 LegendNANA
15:00 -6.9 -7.8 93 0.0 2 8   97.54   -11 LegendNANA
16:00 -6.8 -7.7 93 0.0 2 7   97.59   -10 LegendNANA
17:00 -6.9 -7.8 94 0.0 2 8   97.66   -11 LegendNANA
18:00 -6.9 -7.7 94 0.0 2 6   97.71   -10 LegendNANA
19:00 -6.8 -7.7 94 0.0 1 6   97.73   -10 LegendNANA
20:00 -6.8 -7.7 94 0.0 35 5   97.74   -9 LegendNANA
21:00 -6.9 -7.7 94 0.0 36 4   97.79   -9 LegendNANA
22:00 -6.9 -7.8 94 0.0 36 4   97.80   -9 LegendNANA
23:00 -6.9 -7.8 94 0.0 35 3   97.78   -8 LegendNANA

Notes on Data Quality.

Legend

  • E = Estimated
  • M = Missing
  • NA = Not Available*
  • [empty] = Indicates an unobserved value
Date modified: